TimePST,TemperatureF,Dew PointF,Humidity,Sea Level PressureIn,VisibilityMPH,Wind Direction,Wind SpeedMPH,Gust SpeedMPH,PrecipitationIn,Events,Conditions,WindDirDegrees,DateUTC
12:15 AM,42.8,39.2,87,29.60,10.0,SSE,6.9,-,0.01,Rain,Light Rain,160,2012-12-22 08:15:00
12:35 AM,42.8,41.0,93,29.59,10.0,SE,5.8,-,0.03,Rain,Light Rain,140,2012-12-22 08:35:00
1:15 AM,42.8,39.2,87,-9999,10.0,SSE,8.1,16.1,0.02,Rain,Light Rain,150,2012-12-22 09:15:00
1:35 AM,42.8,39.2,87,29.59,10.0,South,10.4,18.4,0.07,Rain,Rain,170,2012-12-22 09:35:00
1:55 AM,41.0,37.4,87,29.59,7.0,South,15.0,-,0.11,Rain,Rain,170,2012-12-22 09:55:00
2:15 AM,41.0,37.4,87,29.58,7.0,South,12.7,21.9,0.04,Rain,Rain,170,2012-12-22 10:15:00
2:35 AM,39.2,37.4,93,29.58,7.0,SE,9.2,-,0.06,Rain,Light Rain,130,2012-12-22 10:35:00
2:55 AM,39.2,37.4,93,29.58,10.0,SSE,8.1,-,0.07,Rain,Light Rain,150,2012-12-22 10:55:00
3:15 AM,39.2,37.4,93,29.57,10.0,ESE,9.2,-,0.01,Rain,Light Rain,120,2012-12-22 11:15:00
3:35 AM,41.0,37.4,87,29.56,10.0,ESE,10.4,19.6,0.02,Rain,Rain,120,2012-12-22 11:35:00
4:15 AM,41.0,37.4,87,29.52,10.0,ESE,12.7,18.4,0.01,,Overcast,120,2012-12-22 12:15:00
4:35 AM,41.0,37.4,87,29.51,10.0,SE,9.2,18.4,0.01,,Overcast,140,2012-12-22 12:35:00
4:55 AM,41.0,37.4,87,29.51,10.0,SE,13.8,19.6,0.01,,Scattered Clouds,140,2012-12-22 12:55:00
5:15 AM,41.0,37.4,87,29.52,10.0,SSE,11.5,20.7,N/A,,Clear,150,2012-12-22 13:15:00
5:35 AM,41.0,35.6,81,29.52,10.0,SE,12.7,20.7,N/A,,Clear,140,2012-12-22 13:35:00
5:55 AM,41.0,37.4,87,29.52,10.0,SE,13.8,19.6,N/A,,Scattered Clouds,140,2012-12-22 13:55:00
6:15 AM,41.0,37.4,87,29.52,10.0,SE,10.4,16.1,N/A,,Scattered Clouds,140,2012-12-22 14:15:00
6:35 AM,41.0,37.4,87,29.52,10.0,SE,10.4,24.2,N/A,,Clear,140,2012-12-22 14:35:00
6:55 AM,41.0,37.4,87,29.52,10.0,SE,12.7,20.7,N/A,,Clear,140,2012-12-22 14:55:00
7:15 AM,41.0,35.6,81,29.53,10.0,SSE,16.1,24.2,N/A,,Clear,150,2012-12-22 15:15:00
7:35 AM,41.0,35.6,81,29.53,10.0,SE,13.8,17.3,N/A,,Mostly Cloudy,140,2012-12-22 15:35:00
7:55 AM,41.0,35.6,81,-9999,10.0,SSE,13.8,21.9,N/A,,Scattered Clouds,150,2012-12-22 15:55:00
8:15 AM,41.0,35.6,81,29.53,10.0,SE,12.7,20.7,N/A,,Scattered Clouds,140,2012-12-22 16:15:00
8:35 AM,41.0,37.4,87,29.55,10.0,SSE,16.1,25.3,N/A,Rain,Light Rain,160,2012-12-22 16:35:00
8:55 AM,41.0,37.4,87,-9999,10.0,SSE,13.8,25.3,0.01,Rain,Light Rain,150,2012-12-22 16:55:00
9:15 AM,41.0,37.4,87,29.55,10.0,SSE,10.4,21.9,0.01,Rain,Light Rain,150,2012-12-22 17:15:00
9:35 AM,41.0,37.4,87,29.57,5.0,SSE,15.0,23.0,0.02,Rain,Light Rain,150,2012-12-22 17:35:00
9:55 AM,41.0,37.4,87,29.58,10.0,SSE,15.0,23.0,0.03,Rain,Rain,160,2012-12-22 17:55:00
10:15 AM,41.0,39.2,93,29.59,4.0,SSE,15.0,19.6,0.02,Rain,Light Rain,160,2012-12-22 18:15:00
10:35 AM,41.0,39.2,93,29.60,7.0,SSE,11.5,20.7,0.03,Rain,Light Rain,160,2012-12-22 18:35:00
10:55 AM,42.8,39.2,87,29.60,7.0,SSE,12.7,20.7,0.05,Rain,Light Rain,150,2012-12-22 18:55:00
11:15 AM,42.8,41.0,93,29.61,10.0,SSW,15.0,20.7,N/A,,Overcast,200,2012-12-22 19:15:00
11:55 AM,46.4,41.0,81,-9999,7.0,SSW,24.2,34.5,0.01,,Mostly Cloudy,210,2012-12-22 19:55:00
12:15 PM,48.2,41.0,76,29.63,7.0,SW,24.2,33.4,N/A,,Scattered Clouds,220,2012-12-22 20:15:00
12:35 PM,48.2,39.2,71,29.63,7.0,SSW,26.5,34.5,N/A,,Scattered Clouds,210,2012-12-22 20:35:00
12:55 PM,46.4,39.2,76,29.63,7.0,SSW,23.0,29.9,N/A,,Scattered Clouds,210,2012-12-22 20:55:00
1:15 PM,46.4,39.2,76,29.64,7.0,South,19.6,38.0,N/A,,Mostly Cloudy,180,2012-12-22 21:15:00
1:35 PM,42.8,39.2,87,29.66,5.0,South,24.2,31.1,0.01,Rain,Light Rain,190,2012-12-22 21:35:00
1:55 PM,42.8,39.2,87,29.66,10.0,SSE,15.0,26.5,0.01,,Overcast,160,2012-12-22 21:55:00
2:15 PM,42.8,37.4,81,29.65,10.0,SSE,11.5,17.3,N/A,,Mostly Cloudy,150,2012-12-22 22:15:00
2:35 PM,42.8,37.4,81,29.66,10.0,SSE,11.5,17.3,N/A,Rain,Rain,160,2012-12-22 22:35:00
2:55 PM,42.8,37.4,81,29.66,7.0,SSE,9.2,-,0.03,Rain,Rain,160,2012-12-22 22:55:00
3:15 PM,41.0,39.2,93,29.66,4.0,SE,5.8,-,0.04,Rain,Light Rain,130,2012-12-22 23:15:00
3:35 PM,41.0,39.2,93,29.66,10.0,SE,10.4,-,0.05,,Overcast,140,2012-12-22 23:35:00
3:55 PM,41.0,37.4,87,29.67,10.0,SSE,10.4,16.1,0.05,,Light Drizzle,150,2012-12-22 23:55:00
4:15 PM,41.0,37.4,87,29.67,10.0,SSE,10.4,-,N/A,,Overcast,150,2012-12-23 00:15:00
4:35 PM,41.0,37.4,87,29.69,10.0,SSE,8.1,17.3,0.01,Rain,Rain,160,2012-12-23 00:35:00
4:55 PM,41.0,37.4,87,29.69,10.0,SSE,10.4,16.1,0.03,,Mostly Cloudy,150,2012-12-23 00:55:00
5:15 PM,41.0,37.4,87,29.69,10.0,SSE,12.7,19.6,N/A,Rain,Light Rain,150,2012-12-23 01:15:00
5:35 PM,41.0,37.4,87,29.70,10.0,SSE,9.2,17.3,0.01,,Mostly Cloudy,150,2012-12-23 01:35:00
5:55 PM,41.0,37.4,87,29.70,10.0,SE,10.4,-,0.01,,Mostly Cloudy,140,2012-12-23 01:55:00
6:15 PM,41.0,37.4,87,29.70,10.0,SE,11.5,18.4,N/A,Rain,Rain,140,2012-12-23 02:15:00
6:35 PM,41.0,37.4,87,29.70,10.0,SSE,10.4,17.3,N/A,Rain,Light Rain,150,2012-12-23 02:35:00
6:55 PM,41.0,37.4,87,29.71,10.0,SSE,10.4,17.3,0.01,Rain,Rain,160,2012-12-23 02:55:00
7:15 PM,41.0,37.4,87,29.71,10.0,SE,8.1,-,0.01,,Drizzle,140,2012-12-23 03:15:00
7:35 PM,41.0,37.4,87,29.72,10.0,SSE,10.4,17.3,0.02,,Mostly Cloudy,160,2012-12-23 03:35:00
7:55 PM,41.0,37.4,87,29.72,10.0,SSE,10.4,16.1,0.02,,Mostly Cloudy,150,2012-12-23 03:55:00
8:15 PM,39.2,37.4,93,29.73,10.0,SSE,8.1,-,N/A,,Scattered Clouds,150,2012-12-23 04:15:00
8:35 PM,41.0,37.4,87,29.73,10.0,SE,9.2,-,N/A,,Scattered Clouds,130,2012-12-23 04:35:00
8:55 PM,41.0,37.4,87,29.74,10.0,SE,9.2,-,N/A,,Mostly Cloudy,140,2012-12-23 04:55:00
9:15 PM,41.0,37.4,87,29.74,10.0,SE,9.2,-,N/A,Rain,Light Rain,130,2012-12-23 05:15:00
9:35 PM,41.0,37.4,87,29.75,10.0,SE,12.7,20.7,N/A,,Overcast,140,2012-12-23 05:35:00
9:55 PM,41.0,37.4,87,29.76,10.0,SSE,11.5,19.6,N/A,Rain,Rain,150,2012-12-23 05:55:00
10:15 PM,41.0,37.4,87,29.77,7.0,South,11.5,24.2,0.03,Rain,Light Rain,170,2012-12-23 06:15:00
10:35 PM,41.0,37.4,87,29.77,10.0,SSE,12.7,-,0.04,,Scattered Clouds,150,2012-12-23 06:35:00
10:55 PM,41.0,37.4,87,29.77,5.0,SSE,13.8,17.3,0.07,Rain,Rain,160,2012-12-23 06:55:00
11:15 PM,41.0,37.4,87,29.77,10.0,SSE,10.4,16.1,N/A,,Mostly Cloudy,150,2012-12-23 07:15:00
11:35 PM,41.0,37.4,87,29.76,10.0,SE,10.4,16.1,N/A,,Scattered Clouds,140,2012-12-23 07:35:00
11:55 PM,41.0,37.4,87,29.77,10.0,SE,12.7,19.6,N/A,,Mostly Cloudy,140,2012-12-23 07:55:00